| time (UTC) | temp C | wind direction | speed KPH | gust KPH | rain 1hr cm | rain 24hr cm | rain mn cm | humidity % | barometer mb |
| 20260509075329 | 11 | 212 | 0.0 | 1.6 | 0.00 | 0.00 | 0.00 | 58 | 1017.7 |
| 20260509074827 | 11 | 193 | 3.2 | 3.2 | 0.00 | 0.00 | 0.00 | 59 | 1017.6 |
| 20260509074324 | 11 | 208 | 6.4 | 8.0 | 0.00 | 0.00 | 0.00 | 61 | 1017.6 |
| 20260509073820 | 11 | 174 | 3.2 | 3.2 | 0.00 | 0.00 | 0.00 | 61 | 1017.3 |
| 20260509073317 | 11 | 201 | 1.6 | 1.6 | 0.00 | 0.00 | 0.00 | 61 | 1017.5 |
| 20260509072814 | 11 | 231 | 1.6 | 1.6 | 0.00 | 0.00 | 0.00 | 61 | 1017.3 |
| 20260509072310 | 11 | 186 | 3.2 | 3.2 | 0.00 | 0.00 | 0.00 | 60 | 1017.4 |
| 20260509071807 | 11 | 189 | 1.6 | 1.6 | 0.00 | 0.00 | 0.00 | 59 | 1017.5 |
| 20260509071304 | 11 | 193 | 3.2 | 3.2 | 0.00 | 0.00 | 0.00 | 59 | 1017.4 |
| 20260509070801 | 11 | 211 | 3.2 | 3.2 | 0.00 | 0.00 | 0.00 | 59 | 1017.6 |
| 20260509070257 | 12 | 219 | 0.0 | 0.0 | 0.00 | 0.00 | 0.00 | 57 | 1017.5 |
| 20260509065754 | 12 | 192 | 3.2 | 3.2 | 0.00 | 0.00 | 0.00 | 57 | 1017.3 |
| 20260509065250 | 12 | 216 | 0.0 | 0.0 | 0.00 | 0.00 | 0.00 | 57 | 1017.3 |
| 20260509064746 | 12 | 212 | 0.0 | 0.0 | 0.00 | 0.00 | 0.00 | 56 | 1017.2 |
| 20260509064244 | 12 | 232 | 1.6 | 1.6 | 0.00 | 0.00 | 0.00 | 56 | 1017.3 |
| 20260509063741 | 12 | 221 | 1.6 | 1.6 | 0.00 | 0.00 | 0.00 | 54 | 1017.2 |
| 20260509063237 | 12 | 239 | 1.6 | 1.6 | 0.00 | 0.00 | 0.00 | 53 | 1017.2 |
| 20260509062735 | 13 | 220 | 0.0 | 0.0 | 0.00 | 0.00 | 0.00 | 52 | 1017.2 |
| 20260509062232 | 13 | 203 | 1.6 | 1.6 | 0.00 | 0.00 | 0.00 | 51 | 1017.2 |
| 20260509061729 | 13 | 224 | 0.0 | 0.0 | 0.00 | 0.00 | 0.00 | 53 | 1017.0 |
| 20260509061227 | 12 | 196 | 0.0 | 0.0 | 0.00 | 0.00 | 0.00 | 53 | 1017.2 |
| 20260509060724 | 12 | 213 | 1.6 | 1.6 | 0.00 | 0.00 | 0.00 | 52 | 1017.2 |
| 20260509060220 | 12 | 212 | 0.0 | 0.0 | 0.00 | 0.00 | 0.00 | 53 | 1017.0 |
| 20260509055716 | 12 | 216 | 0.0 | 0.0 | 0.00 | 0.00 | 0.00 | 52 | 1017.0 |
| 20260509055212 | 13 | 191 | 1.6 | 1.6 | 0.00 | 0.00 | 0.00 | 51 | 1017.0 |
| 20260509054709 | 13 | 224 | 0.0 | 0.0 | 0.00 | 0.00 | 0.00 | 50 | 1017.2 |
| 20260509054206 | 13 | 215 | 3.2 | 3.2 | 0.00 | 0.00 | 0.00 | 51 | 1017.0 |
| 20260509053704 | 12 | 224 | 0.0 | 1.6 | 0.00 | 0.00 | 0.00 | 53 | 1016.8 |
| 20260509053201 | 13 | 215 | 0.0 | 0.0 | 0.00 | 0.00 | 0.00 | 51 | 1016.9 |
| 20260509052659 | 14 | 213 | 0.0 | 0.0 | 0.00 | 0.00 | 0.00 | 47 | 1016.8 |
| 20260509052156 | 14 | 201 | 1.6 | 1.6 | 0.00 | 0.00 | 0.00 | 47 | 1016.8 |
| 20260509051654 | 13 | 198 | 1.6 | 1.6 | 0.00 | 0.00 | 0.00 | 49 | 1016.6 |
| 20260509051151 | 14 | 210 | 0.0 | 0.0 | 0.00 | 0.00 | 0.00 | 47 | 1016.6 |
| 20260509050648 | 15 | 72 | 3.2 | 3.2 | 0.00 | 0.00 | 0.00 | 47 | 1016.6 |
| 20260509050144 | 15 | 215 | 0.0 | 0.0 | 0.00 | 0.00 | 0.00 | 47 | 1016.7 |
| 20260509045642 | 15 | 209 | 0.0 | 0.0 | 0.00 | 0.00 | 0.00 | 47 | 1016.8 |
| 20260509045139 | 15 | 288 | 1.6 | 1.6 | 0.00 | 0.00 | 0.00 | 46 | 1016.5 |
| 20260509044636 | 15 | 218 | 0.0 | 0.0 | 0.00 | 0.00 | 0.00 | 45 | 1016.7 |
| 20260509044133 | 15 | 215 | 0.0 | 0.0 | 0.00 | 0.00 | 0.00 | 44 | 1016.6 |
| 20260509043629 | 15 | 213 | 1.6 | 1.6 | 0.00 | 0.00 | 0.00 | 43 | 1016.5 |
| 20260509043125 | 16 | 221 | 0.0 | 0.0 | 0.00 | 0.00 | 0.00 | 42 | 1016.5 |
| 20260509042622 | 16 | 212 | 1.6 | 1.6 | 0.00 | 0.00 | 0.00 | 41 | 1016.4 |
| 20260509042118 | 16 | 228 | 3.2 | 3.2 | 0.00 | 0.00 | 0.00 | 39 | 1016.2 |
| 20260509041615 | 16 | 222 | 1.6 | 1.6 | 0.00 | 0.00 | 0.00 | 39 | 1016.1 |
| 20260509041112 | 16 | 197 | 1.6 | 1.6 | 0.00 | 0.00 | 0.00 | 40 | 1016.0 |
| 20260509040611 | 16 | 193 | 1.6 | 3.2 | 0.00 | 0.00 | 0.00 | 39 | 1016.2 |
| 20260509040107 | 17 | 205 | 1.6 | 1.6 | 0.00 | 0.00 | 0.00 | 38 | 1016.2 |
| 20260509035604 | 17 | 295 | 1.6 | 1.6 | 0.00 | 0.00 | 0.00 | 38 | 1016.0 |
| 20260509035100 | 17 | 203 | 0.0 | 1.6 | 0.00 | 0.00 | 0.00 | 37 | 1016.1 |
| 20260509034559 | 18 | 291 | 3.2 | 3.2 | 0.00 | 0.00 | 0.00 | 36 | 1016.2 |
| 20260509034055 | 18 | 244 | 3.2 | 3.2 | 0.00 | 0.00 | 0.00 | 34 | 1015.9 |
| 20260509033553 | 18 | 14 | 3.2 | 3.2 | 0.00 | 0.00 | 0.00 | 32 | 1016.0 |
| 20260509033049 | 19 | 298 | 1.6 | 1.6 | 0.00 | 0.00 | 0.00 | 31 | 1016.0 |
| 20260509032547 | 19 | 154 | 1.6 | 1.6 | 0.00 | 0.00 | 0.00 | 31 | 1015.8 |
| 20260509032044 | 19 | 46 | 3.2 | 3.2 | 0.00 | 0.00 | 0.00 | 32 | 1016.0 |
| 20260509031541 | 19 | 69 | 6.4 | 8.0 | 0.00 | 0.00 | 0.00 | 32 | 1015.8 |
| 20260509031038 | 19 | 291 | 4.8 | 4.8 | 0.00 | 0.00 | 0.00 | 33 | 1016.0 |
| 20260509030537 | 19 | 243 | 3.2 | 3.2 | 0.00 | 0.00 | 0.00 | 34 | 1015.8 |
| 20260509030033 | 19 | 67 | 8.0 | 11.3 | 0.00 | 0.00 | 0.00 | 35 | 1015.7 |
| 20260509025529 | 18 | 324 | 1.6 | 1.6 | 0.00 | 0.00 | 0.00 | 38 | 1015.7 |
| 20260509025025 | 19 | 234 | 0.0 | 1.6 | 0.00 | 0.00 | 0.00 | 39 | 1015.8 |
| 20260509024521 | 19 | 46 | 11.3 | 12.9 | 0.00 | 0.00 | 0.00 | 38 | 1015.7 |
| 20260509024017 | 19 | 32 | 4.8 | 4.8 | 0.00 | 0.00 | 0.00 | 38 | 1015.7 |
| 20260509023515 | 20 | 353 | 6.4 | 8.0 | 0.00 | 0.00 | 0.00 | 41 | 1015.3 |
| 20260509023012 | 20 | 328 | 3.2 | 3.2 | 0.00 | 0.00 | 0.00 | 44 | 1015.3 |
| 20260509022508 | 20 | 301 | 4.8 | 4.8 | 0.00 | 0.00 | 0.00 | 42 | 1015.0 |
| 20260509022006 | 21 | 345 | 3.2 | 4.8 | 0.00 | 0.00 | 0.00 | 40 | 1015.1 |
| 20260509021503 | 21 | 337 | 8.0 | 9.7 | 0.00 | 0.00 | 0.00 | 40 | 1015.0 |
| 20260509021000 | 21 | 184 | 6.4 | 11.3 | 0.00 | 0.00 | 0.00 | 38 | 1014.9 |
| 20260509020458 | 22 | 261 | 3.2 | 3.2 | 0.00 | 0.00 | 0.00 | 38 | 1015.0 |
| 20260509015954 | 22 | 234 | 1.6 | 1.6 | 0.00 | 0.00 | 0.00 | 35 | 1014.9 |
| 20260509015454 | 23 | 253 | 1.6 | 1.6 | 0.00 | 0.00 | 0.00 | 33 | 1014.9 |
| 20260509014950 | 23 | 220 | 1.6 | 3.2 | 0.00 | 0.00 | 0.00 | 33 | 1014.8 |
| 20260509014447 | 23 | 261 | 1.6 | 3.2 | 0.00 | 0.00 | 0.00 | 33 | 1014.6 |
| 20260509013943 | 23 | 262 | 1.6 | 3.2 | 0.00 | 0.00 | 0.00 | 34 | 1014.8 |
| 20260509013440 | 23 | 258 | 3.2 | 3.2 | 0.00 | 0.00 | 0.00 | 33 | 1014.6 |
| 20260509012936 | 23 | 225 | 3.2 | 3.2 | 0.00 | 0.00 | 0.00 | 33 | 1014.5 |
| 20260509012432 | 23 | 234 | 1.6 | 3.2 | 0.00 | 0.00 | 0.00 | 31 | 1014.6 |
| 20260509011929 | 23 | 233 | 1.6 | 1.6 | 0.00 | 0.00 | 0.00 | 33 | 1014.8 |
| 20260509011427 | 23 | 327 | 9.7 | 11.3 | 0.00 | 0.00 | 0.00 | 31 | 1014.9 |
| 20260509010925 | 23 | 253 | 0.0 | 0.0 | 0.00 | 0.00 | 0.00 | 30 | 1014.9 |
| 20260509010422 | 24 | 235 | 1.6 | 1.6 | 0.00 | 0.00 | 0.00 | 31 | 1014.9 |
| 20260509005919 | 24 | 244 | 4.8 | 4.8 | 0.00 | 0.00 | 0.00 | 30 | 1014.6 |
| 20260509005417 | 23 | 238 | 3.2 | 3.2 | 0.00 | 0.00 | 0.00 | 30 | 1014.9 |
| 20260509004917 | 24 | 271 | 6.4 | 8.0 | 0.00 | 0.00 | 0.00 | 30 | 1014.8 |
| 20260509004413 | 24 | 51 | 3.2 | 3.2 | 0.00 | 0.00 | 0.00 | 32 | 1014.6 |
| 20260509003911 | 24 | 221 | 1.6 | 1.6 | 0.00 | 0.00 | 0.00 | 31 | 1014.6 |
| 20260509003409 | 24 | 233 | 3.2 | 3.2 | 0.00 | 0.00 | 0.00 | 32 | 1015.0 |
| 20260509002906 | 23 | 220 | 3.2 | 3.2 | 0.00 | 0.00 | 0.00 | 33 | 1014.9 |
| 20260509002404 | 23 | 196 | 3.2 | 3.2 | 0.00 | 0.00 | 0.00 | 32 | 1014.9 |
| 20260509001901 | 23 | 150 | 11.3 | 12.9 | 0.00 | 0.00 | 0.00 | 32 | 1015.0 |
| 20260509001356 | 23 | 192 | 8.0 | 9.7 | 0.00 | 0.00 | 0.00 | 33 | 1015.0 |
| 20260509000854 | 23 | 242 | 8.0 | 9.7 | 0.00 | 0.00 | 0.00 | 31 | 1015.2 |
| 20260509000352 | 23 | 288 | 9.7 | 12.9 | 0.00 | 0.00 | 0.00 | 31 | 1015.0 |
| 20260508235848 | 23 | 238 | 4.8 | 4.8 | 0.00 | 0.00 | 0.00 | 33 | 1015.0 |
| 20260508235345 | 23 | 193 | 6.4 | 8.0 | 0.00 | 0.00 | 0.00 | 32 | 1014.9 |
| 20260508234842 | 23 | 221 | 6.4 | 8.0 | 0.00 | 0.00 | 0.00 | 32 | 1015.1 |
| 20260508234338 | 23 | 189 | 4.8 | 4.8 | 0.00 | 0.00 | 0.00 | 33 | 1015.2 |
| 20260508233837 | 23 | 243 | 11.3 | 12.9 | 0.00 | 0.00 | 0.00 | 33 | 1015.1 |
| 20260508233336 | 23 | 202 | 14.5 | 16.1 | 0.00 | 0.00 | 0.00 | 33 | 1015.0 |
| 20260508232832 | 23 | 185 | 4.8 | 8.0 | 0.00 | 0.00 | 0.00 | 33 | 1014.9 |
| 20260508232329 | 23 | 221 | 4.8 | 4.8 | 0.00 | 0.00 | 0.00 | 33 | 1015.1 |
| 20260508231827 | 23 | 192 | 12.9 | 16.1 | 0.00 | 0.00 | 0.00 | 34 | 1015.2 |
| 20260508231323 | 23 | 161 | 6.4 | 8.0 | 0.00 | 0.00 | 0.00 | 33 | 1014.9 |
| 20260508230820 | 23 | 160 | 8.0 | 11.3 | 0.00 | 0.00 | 0.00 | 34 | 1015.1 |
| 20260508230316 | 23 | 181 | 9.7 | 14.5 | 0.00 | 0.00 | 0.00 | 34 | 1015.2 |
| 20260508225814 | 23 | 187 | 6.4 | 9.7 | 0.00 | 0.00 | 0.00 | 33 | 1015.3 |
| 20260508225310 | 23 | 159 | 8.0 | 12.9 | 0.00 | 0.00 | 0.00 | 34 | 1015.2 |
| 20260508224809 | 23 | 239 | 16.1 | 17.7 | 0.00 | 0.00 | 0.00 | 32 | 1015.3 |
| 20260508224306 | 23 | 222 | 12.9 | 16.1 | 0.00 | 0.00 | 0.00 | 35 | 1015.4 |
| 20260508223803 | 23 | 202 | 8.0 | 9.7 | 0.00 | 0.00 | 0.00 | 34 | 1015.1 |
| 20260508223301 | 22 | 201 | 8.0 | 11.3 | 0.00 | 0.00 | 0.00 | 34 | 1015.3 |
| 20260508222758 | 23 | 189 | 12.9 | 14.5 | 0.00 | 0.00 | 0.00 | 33 | 1015.2 |
| 20260508222255 | 23 | 216 | 8.0 | 9.7 | 0.00 | 0.00 | 0.00 | 34 | 1015.2 |
| 20260508221751 | 23 | 229 | 6.4 | 8.0 | 0.00 | 0.00 | 0.00 | 33 | 1015.7 |
| 20260508221247 | 23 | 245 | 4.8 | 4.8 | 0.00 | 0.00 | 0.00 | 34 | 1015.7 |
| 20260508220743 | 23 | 241 | 8.0 | 12.9 | 0.00 | 0.00 | 0.00 | 31 | 1015.9 |
| 20260508220240 | 23 | 219 | 11.3 | 12.9 | 0.00 | 0.00 | 0.00 | 32 | 1015.9 |
| 20260508215736 | 23 | 207 | 12.9 | 16.1 | 0.00 | 0.00 | 0.00 | 33 | 1015.9 |
| 20260508215233 | 23 | 224 | 11.3 | 12.9 | 0.00 | 0.00 | 0.00 | 33 | 1015.9 |
| 20260508214730 | 23 | 226 | 6.4 | 9.7 | 0.00 | 0.00 | 0.00 | 30 | 1015.9 |
| 20260508214228 | 23 | 296 | 8.0 | 9.7 | 0.00 | 0.00 | 0.00 | 32 | 1016.0 |
| 20260508213724 | 23 | 235 | 4.8 | 4.8 | 0.00 | 0.00 | 0.00 | 31 | 1015.9 |
| 20260508213220 | 23 | 207 | 1.6 | 3.2 | 0.00 | 0.00 | 0.00 | 32 | 1016.2 |
| 20260508212717 | 24 | 269 | 8.0 | 9.7 | 0.00 | 0.00 | 0.00 | 32 | 1016.0 |
| 20260508212214 | 23 | 279 | 8.0 | 9.7 | 0.00 | 0.00 | 0.00 | 32 | 1016.0 |
| 20260508211709 | 24 | 258 | 8.0 | 9.7 | 0.00 | 0.00 | 0.00 | 32 | 1016.2 |
| 20260508211205 | 23 | 318 | 6.4 | 8.0 | 0.00 | 0.00 | 0.00 | 32 | 1016.2 |
| 20260508210703 | 22 | 242 | 3.2 | 3.2 | 0.00 | 0.00 | 0.00 | 32 | 1016.1 |
| 20260508210200 | 23 | 304 | 6.4 | 11.3 | 0.00 | 0.00 | 0.00 | 31 | 1016.5 |
| 20260508205656 | 23 | 309 | 4.8 | 4.8 | 0.00 | 0.00 | 0.00 | 31 | 1016.6 |
| 20260508205153 | 23 | 215 | 4.8 | 8.0 | 0.00 | 0.00 | 0.00 | 31 | 1016.5 |
| 20260508204649 | 23 | 235 | 4.8 | 8.0 | 0.00 | 0.00 | 0.00 | 30 | 1016.8 |
| 20260508204145 | 23 | 254 | 4.8 | 8.0 | 0.00 | 0.00 | 0.00 | 30 | 1016.6 |
| 20260508203642 | 23 | 269 | 4.8 | 8.0 | 0.00 | 0.00 | 0.00 | 32 | 1016.7 |
| 20260508203138 | 23 | 245 | 4.8 | 4.8 | 0.00 | 0.00 | 0.00 | 31 | 1016.7 |
| 20260508202634 | 22 | 223 | 3.2 | 3.2 | 0.00 | 0.00 | 0.00 | 31 | 1016.7 |
| 20260508202132 | 23 | 294 | 11.3 | 14.5 | 0.00 | 0.00 | 0.00 | 32 | 1016.9 |
| 20260508201628 | 23 | 294 | 6.4 | 11.3 | 0.00 | 0.00 | 0.00 | 32 | 1016.9 |
| 20260508201125 | 22 | 205 | 4.8 | 8.0 | 0.00 | 0.00 | 0.00 | 33 | 1016.8 |
| 20260508200622 | 22 | 218 | 0.0 | 0.0 | 0.00 | 0.00 | 0.00 | 33 | 1016.8 |
| 20260508200118 | 23 | 243 | 9.7 | 11.3 | 0.00 | 0.00 | 0.00 | 33 | 1016.9 |
| 20260508195614 | 22 | 219 | 6.4 | 9.7 | 0.00 | 0.00 | 0.00 | 32 | 1017.2 |
| 20260508195111 | 22 | 278 | 9.7 | 12.9 | 0.00 | 0.00 | 0.00 | 32 | 1017.2 |
| 20260508194608 | 23 | 295 | 11.3 | 14.5 | 0.00 | 0.00 | 0.00 | 32 | 1017.0 |
| 20260508194105 | 22 | 303 | 9.7 | 14.5 | 0.00 | 0.00 | 0.00 | 32 | 1017.2 |
| 20260508193601 | 22 | 10 | 14.5 | 17.7 | 0.00 | 0.00 | 0.00 | 33 | 1017.0 |
| 20260508193058 | 23 | 320 | 12.9 | 16.1 | 0.00 | 0.00 | 0.00 | 31 | 1017.2 |
| 20260508192555 | 22 | 295 | 6.4 | 9.7 | 0.00 | 0.00 | 0.00 | 33 | 1017.0 |
| 20260508192052 | 22 | 271 | 1.6 | 3.2 | 0.00 | 0.00 | 0.00 | 33 | 1017.3 |
| 20260508191548 | 22 | 242 | 4.8 | 4.8 | 0.00 | 0.00 | 0.00 | 33 | 1017.3 |
| 20260508191045 | 22 | 176 | 4.8 | 4.8 | 0.00 | 0.00 | 0.00 | 33 | 1017.5 |
| 20260508190543 | 21 | 234 | 1.6 | 1.6 | 0.00 | 0.00 | 0.00 | 33 | 1017.5 |
| 20260508190039 | 22 | 229 | 8.0 | 9.7 | 0.00 | 0.00 | 0.00 | 32 | 1017.6 |
| 20260508185536 | 22 | 283 | 9.7 | 14.5 | 0.00 | 0.00 | 0.00 | 32 | 1017.6 |
| 20260508185034 | 22 | 272 | 6.4 | 12.9 | 0.00 | 0.00 | 0.00 | 34 | 1017.7 |
| 20260508184531 | 22 | 281 | 6.4 | 9.7 | 0.00 | 0.00 | 0.00 | 33 | 1017.7 |
| 20260508184028 | 21 | 266 | 3.2 | 4.8 | 0.00 | 0.00 | 0.00 | 34 | 1017.6 |
| 20260508183524 | 21 | 230 | 1.6 | 1.6 | 0.00 | 0.00 | 0.00 | 35 | 1017.8 |
| 20260508183020 | 21 | 220 | 3.2 | 3.2 | 0.00 | 0.00 | 0.00 | 35 | 1017.7 |
| 20260508182517 | 21 | 180 | 4.8 | 4.8 | 0.00 | 0.00 | 0.00 | 37 | 1018.0 |
| 20260508182013 | 21 | 190 | 3.2 | 3.2 | 0.00 | 0.00 | 0.00 | 38 | 1017.7 |
| 20260508181509 | 20 | 225 | 3.2 | 3.2 | 0.00 | 0.00 | 0.00 | 37 | 1018.0 |
| 20260508181007 | 21 | 306 | 4.8 | 8.0 | 0.00 | 0.00 | 0.00 | 37 | 1017.8 |
| 20260508180503 | 21 | 193 | 8.0 | 9.7 | 0.00 | 0.00 | 0.00 | 37 | 1018.0 |
| 20260508175959 | 20 | 222 | 1.6 | 1.6 | 0.00 | 0.00 | 0.00 | 38 | 1018.3 |
| 20260508175455 | 20 | 211 | 4.8 | 4.8 | 0.00 | 0.00 | 0.00 | 37 | 1018.3 |
| 20260508174953 | 20 | 166 | 9.7 | 11.3 | 0.00 | 0.00 | 0.00 | 37 | 1018.3 |
| 20260508174451 | 20 | 235 | 1.6 | 1.6 | 0.00 | 0.00 | 0.00 | 37 | 1018.0 |
| 20260508173948 | 20 | 315 | 3.2 | 3.2 | 0.00 | 0.00 | 0.00 | 38 | 1018.3 |
| 20260508173445 | 20 | 278 | 3.2 | 3.2 | 0.00 | 0.00 | 0.00 | 39 | 1018.3 |
| 20260508172940 | 20 | 320 | 4.8 | 8.0 | 0.00 | 0.00 | 0.00 | 39 | 1018.3 |
| 20260508172438 | 20 | 222 | 4.8 | 4.8 | 0.00 | 0.00 | 0.00 | 39 | 1018.0 |
| 20260508171934 | 20 | 253 | 4.8 | 4.8 | 0.00 | 0.00 | 0.00 | 39 | 1018.3 |
| 20260508171430 | 20 | 195 | 1.6 | 1.6 | 0.00 | 0.00 | 0.00 | 38 | 1018.4 |
| 20260508170927 | 20 | 214 | 1.6 | 1.6 | 0.00 | 0.00 | 0.00 | 38 | 1018.4 |
| 20260508170425 | 19 | 14 | 4.8 | 4.8 | 0.00 | 0.00 | 0.00 | 39 | 1018.2 |
| 20260508165921 | 19 | 342 | 6.4 | 9.7 | 0.00 | 0.00 | 0.00 | 39 | 1018.2 |
| 20260508165420 | 18 | 278 | 3.2 | 3.2 | 0.00 | 0.00 | 0.00 | 42 | 1018.4 |
| 20260508164915 | 18 | 321 | 6.4 | 9.7 | 0.00 | 0.00 | 0.00 | 42 | 1018.3 |
| 20260508164412 | 18 | 225 | 3.2 | 3.2 | 0.00 | 0.00 | 0.00 | 43 | 1018.3 |
| 20260508163909 | 18 | 232 | 3.2 | 3.2 | 0.00 | 0.00 | 0.00 | 42 | 1018.2 |
| 20260508163407 | 18 | 249 | 6.4 | 8.0 | 0.00 | 0.00 | 0.00 | 42 | 1018.1 |
| 20260508162902 | 18 | 288 | 4.8 | 8.0 | 0.00 | 0.00 | 0.00 | 42 | 1018.3 |
| 20260508162400 | 18 | 227 | 8.0 | 11.3 | 0.00 | 0.00 | 0.00 | 40 | 1018.3 |
| 20260508161857 | 17 | 201 | 4.8 | 4.8 | 0.00 | 0.00 | 0.00 | 40 | 1018.1 |
| 20260508161354 | 18 | 233 | 0.0 | 0.0 | 0.00 | 0.00 | 0.00 | 40 | 1018.3 |
| 20260508160851 | 17 | 209 | 1.6 | 1.6 | 0.00 | 0.00 | 0.00 | 41 | 1018.3 |
| 20260508160350 | 17 | 206 | 1.6 | 3.2 | 0.00 | 0.00 | 0.00 | 39 | 1018.2 |
| 20260508155846 | 18 | 183 | 1.6 | 3.2 | 0.00 | 0.00 | 0.00 | 42 | 1018.3 |
| 20260508155343 | 17 | 159 | 3.2 | 3.2 | 0.00 | 0.00 | 0.00 | 42 | 1018.3 |
| 20260508154840 | 17 | 330 | 6.4 | 8.0 | 0.00 | 0.00 | 0.00 | 43 | 1018.2 |
| 20260508154338 | 17 | 209 | 1.6 | 1.6 | 0.00 | 0.00 | 0.00 | 46 | 1018.2 |
| 20260508153834 | 16 | 199 | 1.6 | 1.6 | 0.00 | 0.00 | 0.00 | 53 | 1018.2 |
| 20260508153331 | 15 | 326 | 3.2 | 4.8 | 0.00 | 0.00 | 0.00 | 55 | 1018.3 |
| 20260508152827 | 15 | 151 | 1.6 | 1.6 | 0.00 | 0.00 | 0.00 | 54 | 1018.2 |
| 20260508152324 | 15 | 184 | 1.6 | 3.2 | 0.00 | 0.00 | 0.00 | 55 | 1018.3 |
| 20260508151820 | 14 | 249 | 1.6 | 1.6 | 0.00 | 0.00 | 0.00 | 58 | 1018.3 |
| 20260508151317 | 13 | 31 | 3.2 | 3.2 | 0.00 | 0.00 | 0.00 | 59 | 1018.3 |
| 20260508150814 | 13 | 207 | 0.0 | 0.0 | 0.00 | 0.00 | 0.00 | 60 | 1018.2 |
| 20260508150310 | 12 | 218 | 1.6 | 1.6 | 0.00 | 0.00 | 0.00 | 63 | 1018.2 |
| 20260508145807 | 12 | 218 | 1.6 | 1.6 | 0.00 | 0.00 | 0.00 | 61 | 1018.2 |
| 20260508145306 | 12 | 227 | 3.2 | 4.8 | 0.00 | 0.00 | 0.00 | 63 | 1018.0 |
| 20260508144800 | 12 | 204 | 4.8 | 4.8 | 0.00 | 0.00 | 0.00 | 63 | 1018.0 |
| 20260508144258 | 11 | 214 | 1.6 | 1.6 | 0.00 | 0.00 | 0.00 | 64 | 1018.2 |
| 20260508143755 | 11 | 246 | 4.8 | 4.8 | 0.00 | 0.00 | 0.00 | 64 | 1018.3 |
| 20260508143252 | 11 | 266 | 4.8 | 4.8 | 0.00 | 0.00 | 0.00 | 64 | 1018.0 |
| 20260508142748 | 11 | 230 | 1.6 | 1.6 | 0.00 | 0.00 | 0.00 | 62 | 1018.0 |
| 20260508142245 | 11 | 209 | 0.0 | 1.6 | 0.00 | 0.00 | 0.00 | 63 | 1018.0 |
| 20260508141742 | 11 | 280 | 3.2 | 3.2 | 0.00 | 0.00 | 0.00 | 61 | 1018.0 |
| 20260508141239 | 11 | 264 | 1.6 | 3.2 | 0.00 | 0.00 | 0.00 | 62 | 1017.6 |
| 20260508140736 | 11 | 215 | 1.6 | 1.6 | 0.00 | 0.00 | 0.00 | 63 | 1017.7 |
| 20260508140233 | 11 | 211 | 1.6 | 1.6 | 0.00 | 0.00 | 0.00 | 63 | 1017.7 |
| 20260508135729 | 11 | 219 | 0.0 | 0.0 | 0.00 | 0.00 | 0.00 | 63 | 1017.8 |
| 20260508135225 | 10 | 215 | 1.6 | 3.2 | 0.00 | 0.00 | 0.00 | 65 | 1017.7 |
| 20260508134721 | 10 | 218 | 0.0 | 1.6 | 0.00 | 0.00 | 0.00 | 65 | 1017.8 |
| 20260508134219 | 10 | 225 | 0.0 | 1.6 | 0.00 | 0.00 | 0.00 | 65 | 1017.6 |
| 20260508133715 | 10 | 225 | 0.0 | 1.6 | 0.00 | 0.00 | 0.00 | 67 | 1017.5 |
| 20260508133213 | 10 | 231 | 0.0 | 1.6 | 0.00 | 0.00 | 0.00 | 68 | 1017.4 |
| 20260508132711 | 9 | 251 | 3.2 | 3.2 | 0.00 | 0.00 | 0.00 | 70 | 1017.5 |
| 20260508132208 | 8 | 247 | 3.2 | 4.8 | 0.00 | 0.00 | 0.00 | 72 | 1017.5 |
| 20260508131703 | 8 | 235 | 1.6 | 1.6 | 0.00 | 0.00 | 0.00 | 73 | 1017.3 |
| 20260508131159 | 8 | 224 | 0.0 | 0.0 | 0.00 | 0.00 | 0.00 | 75 | 1017.4 |
| 20260508130656 | 7 | 252 | 1.6 | 1.6 | 0.00 | 0.00 | 0.00 | 78 | 1017.3 |
| 20260508130153 | 7 | 290 | 3.2 | 3.2 | 0.00 | 0.00 | 0.00 | 81 | 1017.0 |
| 20260508125649 | 6 | 231 | 1.6 | 1.6 | 0.00 | 0.00 | 0.00 | 82 | 1017.2 |
| 20260508125146 | 6 | 276 | 3.2 | 3.2 | 0.00 | 0.00 | 0.00 | 83 | 1016.9 |
| 20260508124644 | 6 | 252 | 3.2 | 4.8 | 0.00 | 0.00 | 0.00 | 83 | 1016.9 |
| 20260508124141 | 6 | 236 | 0.0 | 0.0 | 0.00 | 0.00 | 0.00 | 81 | 1017.0 |
| 20260508123639 | 6 | 236 | 0.0 | 0.0 | 0.00 | 0.00 | 0.00 | 80 | 1016.8 |
| 20260508123137 | 6 | 278 | 3.2 | 3.2 | 0.00 | 0.00 | 0.00 | 80 | 1016.9 |
| 20260508122632 | 6 | 268 | 1.6 | 3.2 | 0.00 | 0.00 | 0.00 | 80 | 1016.7 |
| 20260508122129 | 6 | 336 | 4.8 | 4.8 | 0.00 | 0.00 | 0.00 | 80 | 1016.7 |
| 20260508121628 | 6 | 259 | 0.0 | 0.0 | 0.00 | 0.00 | 0.00 | 79 | 1016.6 |
| 20260508121126 | 6 | 239 | 0.0 | 0.0 | 0.00 | 0.00 | 0.00 | 79 | 1016.4 |
| 20260508120623 | 6 | 221 | 0.0 | 0.0 | 0.00 | 0.00 | 0.00 | 78 | 1016.2 |
| 20260508120121 | 7 | 233 | 0.0 | 0.0 | 0.00 | 0.00 | 0.00 | 75 | 1016.1 |
| 20260508115618 | 8 | 234 | 4.8 | 4.8 | 0.00 | 0.00 | 0.00 | 72 | 1016.2 |
| 20260508115115 | 8 | 229 | 1.6 | 1.6 | 0.00 | 0.00 | 0.00 | 68 | 1016.0 |
| 20260508114612 | 8 | 233 | 1.6 | 1.6 | 0.00 | 0.00 | 0.00 | 66 | 1016.0 |
| 20260508114108 | 8 | 248 | 0.0 | 0.0 | 0.00 | 0.00 | 0.00 | 65 | 1016.2 |
| 20260508113605 | 8 | 248 | 1.6 | 1.6 | 0.00 | 0.00 | 0.00 | 65 | 1016.4 |
| 20260508113104 | 8 | 249 | 1.6 | 1.6 | 0.00 | 0.00 | 0.00 | 67 | 1015.8 |
| 20260508112559 | 8 | 214 | 1.6 | 1.6 | 0.00 | 0.00 | 0.00 | 67 | 1016.0 |
| 20260508112056 | 8 | 229 | 1.6 | 1.6 | 0.00 | 0.00 | 0.00 | 65 | 1015.9 |
| 20260508111553 | 8 | 99 | 4.8 | 4.8 | 0.00 | 0.00 | 0.00 | 62 | 1016.0 |
| 20260508111050 | 8 | 167 | 1.6 | 3.2 | 0.00 | 0.00 | 0.00 | 68 | 1016.0 |
| 20260508110548 | 8 | 160 | 1.6 | 1.6 | 0.00 | 0.00 | 0.00 | 68 | 1016.0 |
| 20260508110044 | 8 | 237 | 0.0 | 0.0 | 0.00 | 0.00 | 0.00 | 69 | 1016.1 |
| 20260508105539 | 8 | 213 | 1.6 | 1.6 | 0.00 | 0.00 | 0.00 | 67 | 1015.9 |
| 20260508105036 | 8 | 220 | 0.0 | 0.0 | 0.00 | 0.00 | 0.00 | 67 | 1015.9 |
| 20260508104534 | 8 | 213 | 0.0 | 0.0 | 0.00 | 0.00 | 0.00 | 67 | 1015.8 |
| 20260508104030 | 8 | 228 | 0.0 | 0.0 | 0.00 | 0.00 | 0.00 | 64 | 1015.7 |
| 20260508103527 | 8 | 236 | 0.0 | 0.0 | 0.00 | 0.00 | 0.00 | 64 | 1015.8 |
| 20260508103025 | 8 | 262 | 0.0 | 0.0 | 0.00 | 0.00 | 0.00 | 64 | 1015.8 |
| 20260508102522 | 9 | 220 | 0.0 | 0.0 | 0.00 | 0.00 | 0.00 | 64 | 1015.9 |
| 20260508102020 | 10 | 214 | 1.6 | 1.6 | 0.00 | 0.00 | 0.00 | 62 | 1015.8 |
| 20260508101517 | 10 | 195 | 0.0 | 0.0 | 0.00 | 0.00 | 0.00 | 58 | 1015.6 |
| 20260508101014 | 10 | 226 | 0.0 | 0.0 | 0.00 | 0.00 | 0.00 | 59 | 1015.7 |
| 20260508100512 | 11 | 227 | 0.0 | 1.6 | 0.00 | 0.00 | 0.00 | 57 | 1015.6 |
| 20260508100009 | 11 | 196 | 3.2 | 3.2 | 0.00 | 0.00 | 0.00 | 58 | 1015.7 |
| 20260508095506 | 11 | 173 | 3.2 | 3.2 | 0.00 | 0.00 | 0.00 | 56 | 1015.7 |
| 20260508095003 | 11 | 188 | 3.2 | 3.2 | 0.00 | 0.00 | 0.00 | 59 | 1015.7 |
| 20260508094500 | 11 | 200 | 1.6 | 1.6 | 0.00 | 0.00 | 0.00 | 59 | 1015.8 |
| 20260508093956 | 11 | 170 | 4.8 | 4.8 | 0.00 | 0.00 | 0.00 | 59 | 1015.8 |
| 20260508093454 | 11 | 183 | 4.8 | 4.8 | 0.00 | 0.00 | 0.00 | 61 | 1015.7 |
| 20260508092951 | 10 | 168 | 6.4 | 8.0 | 0.00 | 0.00 | 0.00 | 62 | 1015.7 |
| 20260508092449 | 10 | 224 | 0.0 | 0.0 | 0.00 | 0.00 | 0.00 | 64 | 1015.4 |
| 20260508091948 | 10 | 186 | 3.2 | 3.2 | 0.00 | 0.00 | 0.00 | 63 | 1015.6 |
| 20260508091444 | 11 | 43 | 3.2 | 3.2 | 0.00 | 0.00 | 0.00 | 64 | 1015.7 |
| 20260508090941 | 11 | 178 | 3.2 | 4.8 | 0.00 | 0.00 | 0.00 | 62 | 1015.7 |
| 20260508090440 | 11 | 168 | 4.8 | 4.8 | 0.00 | 0.00 | 0.00 | 61 | 1015.4 |
| 20260508085935 | 11 | 229 | 6.4 | 8.0 | 0.00 | 0.00 | 0.00 | 61 | 1015.4 |
| 20260508085432 | 11 | 205 | 1.6 | 1.6 | 0.00 | 0.00 | 0.00 | 61 | 1015.3 |
| 20260508084929 | 11 | 215 | 6.4 | 8.0 | 0.00 | 0.00 | 0.00 | 62 | 1015.6 |
| 20260508084425 | 11 | 229 | 4.8 | 4.8 | 0.00 | 0.00 | 0.00 | 61 | 1015.6 |
| 20260508083924 | 11 | 209 | 3.2 | 3.2 | 0.00 | 0.00 | 0.00 | 64 | 1015.4 |
| 20260508083421 | 11 | 220 | 3.2 | 3.2 | 0.00 | 0.00 | 0.00 | 63 | 1015.3 |
| 20260508082920 | 10 | 198 | 4.8 | 4.8 | 0.00 | 0.00 | 0.00 | 65 | 1015.6 |
| 20260508082418 | 10 | 221 | 0.0 | 0.0 | 0.00 | 0.00 | 0.00 | 67 | 1015.8 |
| 20260508081916 | 10 | 224 | 0.0 | 0.0 | 0.00 | 0.00 | 0.00 | 68 | 1015.8 |
| 20260508081412 | 10 | 165 | 4.8 | 4.8 | 0.00 | 0.00 | 0.00 | 69 | 1015.7 |
| 20260508080908 | 10 | 196 | 1.6 | 1.6 | 0.00 | 0.00 | 0.00 | 69 | 1015.6 |
| 20260508080407 | 10 | 221 | 0.0 | 0.0 | 0.00 | 0.00 | 0.00 | 71 | 1015.6 |
| 20260508075903 | 10 | 214 | 0.0 | 0.0 | 0.00 | 0.00 | 0.00 | 71 | 1015.7 |